Weather History for KOFF - April, 2013

Change the Weather History Date:

Monday, April 8, 2013

  Actual Average Record
Temperature  
Mean Temperature 55 °F -  
Max Temperature 68 °F 57 °F 78 °F (2001)
Min Temperature 42 °F 37 °F 15 °F (2007)
Degree Days  
Heating Degree Days 10    
Growing Degree Days 5 (Base 50)    
Moisture  
Dew Point 55 °F    
Average Humidity 96    
Maximum Humidity 100    
Minimum Humidity 73    
Precipitation  
Precipitation 0.04 in - - ()
Sea Level Pressure  
Sea Level Pressure 29.67 in    
Wind  
Wind Speed 7 mph (SE)    
Max Wind Speed 23 mph    
Max Gust Speed 32 mph    
Visibility 8 miles    
Events Rain    
Averages and records for this station are not official NWS values.
T = Trace of Precipitation, MM = Missing Value Source: NWS Daily Summary

Daily Weather History Graph

Daily Weather History Graph

Search for Another Location

Airport or City:

Trip Planner

Search our weather history database for the weather conditions in past years. The results will help you decide how hot, cold, wet, or windy it might be!

Date:

Astronomy

Apr. 08, 2013 Rise Set
Actual Time 6:55 AM CDT 7:56 PM CDT
Civil Twilight 6:26 AM CDT 8:24 PM CDT
Nautical Twilight 5:53 AM CDT 8:58 PM CDT
Astronomical Twilight 5:18 AM CDT 9:33 PM CDT
Moon 5:46 AM CDT (4/8) 6:31 PM CDT (4/8)
Length of Visible Light 13h 57m
Length of Day
13h 01m
Waning Crescent, 3% of the Moon is Illuminated
Apr 8
Waning Crescent
Apr 10
New
Apr 18
First Quarter
Apr 25
Full
May 2
Last Quarter

Hourly Weather History & Observations

Time (CDT) Temp. Windchill Dew Point Humidity Pressure Visibility Wind Dir Wind Speed Gust Speed Precip Events Conditions
12:55 AM 54.5 °F - 54.5 °F 100% 29.66 in 10.0 mi South 11.5 mph - 0.03 in Rain Light Rain
1:04 AM 53.6 °F - 53.6 °F 100% 29.66 in 10.0 mi South 10.4 mph - N/A   Scattered Clouds
1:10 AM 53.6 °F - 53.6 °F 100% 29.66 in 10.0 mi South 10.4 mph - N/A Rain Light Rain
1:20 AM 53.6 °F - 53.6 °F 100% 29.67 in 10.0 mi South 12.7 mph - N/A   Partly Cloudy
1:22 AM 53.6 °F - 53.6 °F 100% 29.67 in 10.0 mi South 13.8 mph - N/A Rain Light Rain
1:49 AM 55.4 °F - 53.6 °F 94% 29.62 in 10.0 mi SSE 23.0 mph 32.2 mph N/A   Clear
1:55 AM 54.7 °F - 54.5 °F 99% 29.61 in 10.0 mi South 19.6 mph 32.2 mph 0.01 in   Clear
2:55 AM 53.2 °F - 52.9 °F 99% 29.63 in 10.0 mi South 5.8 mph - N/A   Clear
3:55 AM 51.3 °F - 51.1 °F 99% 29.62 in 10.0 mi South 4.6 mph - N/A   Clear
4:55 AM 50.4 °F - 50.2 °F 99% 29.61 in 10.0 mi South 3.5 mph - N/A   Clear
5:55 AM 45.1 °F 43.7 °F 45.1 °F 100% 29.63 in 10.0 mi SW 3.5 mph - N/A   Clear
6:55 AM 44.8 °F - 44.8 °F 100% 29.64 in 10.0 mi Calm Calm - N/A   Clear
7:16 AM 42.8 °F - 42.8 °F 100% 29.65 in 10.0 mi Calm Calm - N/A   Mostly Cloudy
7:23 AM 44.6 °F - 44.6 °F 100% 29.65 in 10.0 mi Calm Calm - N/A   Mostly Cloudy
7:27 AM 44.6 °F - 44.6 °F 100% 29.66 in 10.0 mi Calm Calm - N/A   Mostly Cloudy
7:34 AM 44.6 °F - 44.6 °F 100% 29.66 in 10.0 mi Calm Calm - N/A   Overcast
7:41 AM 46.4 °F - 46.4 °F 100% 29.66 in 10.0 mi Calm Calm - N/A   Overcast
7:55 AM 48.6 °F - 48.6 °F 100% 29.66 in 10.0 mi Calm Calm - N/A   Overcast
8:04 AM 50.0 °F - 50.0 °F 100% 29.66 in 10.0 mi Calm Calm - N/A   Overcast
8:33 AM 50.0 °F - 50.0 °F 100% 29.67 in 10.0 mi West 3.5 mph - N/A   Overcast
8:55 AM 52.0 °F - 52.0 °F 100% 29.67 in 3.0 mi Calm Calm - N/A   Overcast
8:56 AM 51.8 °F - 51.8 °F 100% 29.68 in 2.5 mi Calm Calm - N/A   Overcast
9:03 AM 51.8 °F - 51.8 °F 100% 29.68 in 1.8 mi Calm Calm - N/A   Overcast
9:27 AM 53.6 °F - 53.6 °F 100% 29.67 in 1.5 mi Calm Calm - N/A   Overcast
9:55 AM 53.4 °F - 53.4 °F 100% 29.68 in 1.5 mi ESE 3.5 mph - N/A   Overcast
10:20 AM 55.4 °F - 55.4 °F 100% 29.68 in 2.0 mi ESE 4.6 mph - N/A   Overcast
10:31 AM 55.4 °F - 55.4 °F 100% 29.68 in 3.0 mi East 4.6 mph - N/A   Overcast
10:35 AM 55.4 °F - 55.4 °F 100% 29.68 in 4.0 mi East 3.5 mph - N/A   Overcast
10:47 AM 57.2 °F - 57.2 °F 100% 29.68 in 6.0 mi East 4.6 mph - N/A   Overcast
10:55 AM 57.4 °F - 57.4 °F 100% 29.68 in 6.0 mi East 3.5 mph - N/A   Overcast
10:59 AM 57.2 °F - 57.2 °F 100% 29.69 in 7.0 mi East 3.5 mph - N/A   Overcast
11:15 AM 57.2 °F - 57.2 °F 100% 29.70 in 9.0 mi ESE 3.5 mph - N/A   Overcast
11:55 AM 59.2 °F - 59.0 °F 99% 29.70 in 9.0 mi ENE 4.6 mph - N/A   Overcast
12:00 PM 59.0 °F - 59.0 °F 100% 29.70 in 9.0 mi ESE 5.8 mph - N/A   Overcast
12:13 PM 59.0 °F - 59.0 °F 100% 29.70 in 10.0 mi ESE 4.6 mph - N/A   Overcast
12:32 PM 60.8 °F - 59.0 °F 94% 29.71 in 10.0 mi ESE 5.8 mph - N/A   Overcast
12:55 PM 60.4 °F - 59.9 °F 98% 29.72 in 10.0 mi SE 8.1 mph - N/A   Overcast
1:55 PM 61.9 °F - 61.2 °F 97% 29.70 in 10.0 mi ESE 11.5 mph - N/A   Overcast
2:11 PM 62.6 °F - 60.8 °F 94% 29.70 in 10.0 mi SE 9.2 mph - N/A   Overcast
2:55 PM 65.7 °F - 58.6 °F 78% 29.68 in 10.0 mi ESE 10.4 mph - N/A   Mostly Cloudy
3:55 PM 65.8 °F - 58.6 °F 78% 29.68 in 10.0 mi SE 8.1 mph - N/A   Overcast
4:48 PM 66.2 °F - 60.8 °F 83% 29.66 in 10.0 mi East 5.8 mph - N/A   Mostly Cloudy
4:55 PM 67.1 °F - 60.3 °F 79% 29.66 in 10.0 mi East 6.9 mph - N/A   Mostly Cloudy
5:55 PM 68.4 °F - 59.5 °F 73% 29.67 in 10.0 mi ESE 6.9 mph - N/A   Mostly Cloudy
6:55 PM 67.6 °F - 60.6 °F 78% 29.68 in 10.0 mi ESE 6.9 mph - N/A   Mostly Cloudy
7:55 PM 65.8 °F - 61.5 °F 86% 29.69 in 10.0 mi East 9.2 mph - N/A   Mostly Cloudy
8:55 PM 65.3 °F - 61.5 °F 88% 29.69 in 10.0 mi ENE 8.1 mph - N/A   Mostly Cloudy
9:55 PM 64.2 °F - 61.0 °F 89% 29.70 in 10.0 mi ENE 10.4 mph - N/A   Scattered Clouds
10:55 PM 64.9 °F - 61.7 °F 89% 29.68 in 10.0 mi East 16.1 mph - N/A   Scattered Clouds
11:55 PM 64.6 °F - 62.4 °F 93% 29.66 in 10.0 mi ESE 16.1 mph - N/A   Mostly Cloudy